AT627 Weather Reports


time (UTC)temp
F
wind
direction
speed
knots
gust
knots
rain 1hr
in
rain 24hr
in
rain mn
in
humidity
%
barometer
mb
20260505152305 75 195 3.5 8.7 0.00 0.00 0.00 47 985.2
20260505152053 75 246 4.3 11.3 0.00 0.00 0.00 49 985.1
20260505151301 76 246 4.3 11.3 0.00 0.00 0.00 47 985.2
20260505150801 76 315 3.5 9.6 0.00 0.00 0.00 49 985.2
20260505150301 75 272 3.5 7.0 0.00 0.00 0.00 48 985.1
20260505140302 70 219 2.6 6.1 0.00 0.00 0.00 54 985.5
20260505124800 64 207 1.7 5.2 0.00 0.00 0.00 64 986.1
20260505124301 63 219 1.7 6.1 0.00 0.00 0.00 63 986.1
20260505123802 63 265 2.6 6.1 0.00 0.00 0.00 65 986.1
20260505123300 63 205 2.6 5.2 0.00 0.00 0.00 64 986.1
20260505123047 63 223 2.6 6.1 0.00 0.00 0.00 65 986.1
20260505122305 62 279 2.6 6.1 0.00 0.00 0.00 66 986.0
20260505121801 62 208 1.7 5.2 0.00 0.00 0.00 66 986.0
20260505121302 62 356 1.7 5.2 0.00 0.00 0.00 66 985.9
20260505120801 62 318 1.7 7.0 0.00 0.00 0.00 67 985.9
20260505120301 61 242 2.6 7.0 0.00 0.00 0.00 68 985.8
20260505115801 61 295 1.7 5.2 0.00 0.00 0.00 68 985.8
20260505115304 61 271 1.7 4.3 0.00 0.00 0.00 68 985.6
20260505114802 61 204 1.7 4.3 0.00 0.00 0.00 68 985.6
20260505114533 60 208 1.7 3.5 0.00 0.00 0.00 69 985.6
20260505114038 60 196 1.7 3.5 0.00 0.00 0.00 69 985.6
20260505113301 60 205 1.7 3.5 0.00 0.00 0.00 69 985.5
20260505112816 60 245 1.7 3.5 0.00 0.00 0.00 70 985.4
20260505112810 60 257 1.7 3.5 0.00 0.00 0.00 70 985.5
20260505112039 59 198 1.7 3.5 0.00 0.00 0.00 70 985.4
20260505111302 59 246 1.7 3.5 0.00 0.00 0.00 69 985.3
20260505110802 59 300 1.7 3.5 0.00 0.00 0.00 70 985.3
20260505110303 59 288 1.7 2.6 0.00 0.00 0.00 71 985.2
20260505101802 59 202 1.7 4.3 0.00 0.00 0.00 71 984.9
20260505101302 59 285 1.7 4.3 0.00 0.00 0.00 70 984.8
20260505100816 59 222 1.7 4.3 0.00 0.00 0.00 70 984.8
20260505100809 59 202 1.7 4.3 0.00 0.00 0.00 70 984.8
20260505100043 59 222 1.7 4.3 0.00 0.00 0.00 70 984.7
20260505095537 59 295 1.7 3.5 0.00 0.00 0.00 70 984.7
20260505094802 60 101 1.7 5.2 0.00 0.00 0.00 69 984.7
20260505094301 60 228 1.7 5.2 0.00 0.00 0.00 70 984.7
20260505093800 60 238 1.7 4.3 0.00 0.00 0.00 69 984.7
20260505093303 60 178 1.7 7.0 0.00 0.00 0.00 69 984.7
20260505092754 60 204 2.6 7.0 0.00 0.00 0.00 68 984.7
20260505092255 60 250 2.6 6.1 0.00 0.00 0.00 68 984.6
20260505092036 60 285 1.7 4.3 0.00 0.00 0.00 70 984.6
20260505091256 59 85 1.7 5.2 0.00 0.00 0.00 70 984.6
20260505091016 59 238 1.7 5.2 0.00 0.00 0.00 71 984.6
20260505090240 59 343 0.9 2.6 0.00 0.00 0.00 71 984.6
20260505085740 59 303 1.7 4.3 0.00 0.00 0.00 71 984.5
20260505085240 60 318 1.7 4.3 0.00 0.00 0.00 70 984.6
20260505084740 59 237 1.7 3.5 0.00 0.00 0.00 71 984.6
20260505084230 59 314 0.9 3.5 0.00 0.00 0.00 70 984.6
20260505084001 60 246 0.9 1.7 0.00 0.00 0.00 71 984.5
20260505083230 60 227 0.9 3.5 0.00 0.00 0.00 70 984.4
20260505082730 60 305 0.9 3.5 0.00 0.00 0.00 70 984.4
20260505082503 60 212 0.9 2.6 0.00 0.00 0.00 71 984.4
20260505081730 60 274 0.9 2.6 0.00 0.00 0.00 71 984.4
20260505081229 59 269 0.9 2.6 0.00 0.00 0.00 71 984.4
20260505080729 59 194 0.9 1.7 0.00 0.00 0.00 71 984.4
20260505080230 59 286 0.9 1.7 0.00 0.00 0.00 72 984.4
20260505075729 60 162 1.7 2.6 0.00 0.00 0.00 71 984.4
20260505075229 60 140 1.7 2.6 0.00 0.00 0.00 70 984.4
20260505074730 61 218 1.7 2.6 0.00 0.00 0.00 69 984.4
20260505074230 61 204 1.7 3.5 0.00 0.00 0.00 68 984.3
20260505073731 61 205 1.7 3.5 0.00 0.00 0.00 68 984.3
20260505073230 61 154 1.7 3.5 0.00 0.00 0.00 67 984.3
20260505072730 62 190 1.7 2.6 0.00 0.00 0.00 66 984.4
20260505072230 62 183 1.7 3.5 0.00 0.00 0.00 66 984.4
20260505071729 62 281 1.7 3.5 0.00 0.00 0.00 66 984.4
20260505071230 62 240 0.9 2.6 0.00 0.00 0.00 66 984.6
20260505070730 62 298 0.9 3.5 0.00 0.00 0.00 66 984.4
20260505070522 62 209 0.9 2.6 0.00 0.00 0.00 66 984.6
20260505070239 62 111 0.9 3.5 0.00 0.00 0.00 66 984.5
20260505065230 62 227 1.7 4.3 0.00 0.00 0.00 65 984.7
20260505065004 62 257 1.7 5.2 0.00 0.00 0.00 66 984.6
20260505064600 62 240 1.7 5.2 0.00 0.00 0.00 65 984.6
20260505064555 62 277 2.6 5.2 0.00 0.00 0.00 65 984.5
20260505063230 61 221 1.7 4.3 0.00 0.00 0.00 65 984.6
20260505062730 61 307 1.7 3.5 0.00 0.00 0.00 66 984.6
20260505062230 61 254 1.7 5.2 0.00 0.00 0.00 65 984.6
20260505061729 61 241 1.7 5.2 0.00 0.00 0.00 66 984.6
20260505061228 60 5 0.9 1.7 0.00 0.00 0.00 67 984.6
20260505060728 60 236 0.9 1.7 0.00 0.00 0.00 67 984.6
20260505060229 60 211 0.9 1.7 0.00 0.00 0.00 66 984.6
20260505055728 60 169 0.0 1.7 0.00 0.00 0.00 67 984.7
20260505055233 60 220 0.0 0.9 0.00 0.00 0.00 66 984.7
20260505054740 60 262 0.9 5.2 0.00 0.00 0.00 64 984.6
20260505054734 60 0 0.9 2.6 0.00 0.00 0.00 66 984.6
20260505054726 60 353 0.9 2.6 0.00 0.00 0.00 65 984.6
20260505053514 60 231 1.7 5.2 0.00 0.00 0.00 64 984.6
20260505052729 60 48 1.7 3.5 0.00 0.00 0.00 64 984.7
20260505052228 60 215 1.7 3.5 0.00 0.00 0.00 64 984.6
20260505052014 60 344 0.9 3.5 0.00 0.00 0.00 63 984.6
20260505051514 60 0 0.9 4.3 0.00 0.00 0.00 63 984.7
20260505051013 60 318 1.7 4.3 0.00 0.00 0.00 63 984.6
20260505050512 60 139 1.7 4.3 0.00 0.00 0.00 61 984.6
20260505041729 61 266 1.7 4.3 0.00 0.00 0.00 57 984.6
20260505041230 61 193 0.9 3.5 0.00 0.00 0.00 58 984.4
20260505040730 61 322 0.9 3.5 0.00 0.00 0.00 57 984.4
20260505040518 61 279 0.9 3.5 0.00 0.00 0.00 56 984.4
20260505035731 61 326 0.9 3.5 0.00 0.00 0.00 56 984.5
20260505035514 62 155 0.9 5.2 0.00 0.00 0.00 56 984.4
20260505034730 62 144 0.9 5.2 0.00 0.00 0.00 56 984.3
20260505034516 62 166 1.7 5.2 0.00 0.00 0.00 55 984.2
20260505034016 62 207 1.7 5.2 0.00 0.00 0.00 54 984.1
20260505033229 63 141 1.7 5.2 0.00 0.00 0.00 55 984.1
20260505032729 63 168 1.7 7.0 0.00 0.00 0.00 53 984.2
20260505032229 63 220 1.7 7.0 0.00 0.00 0.00 53 984.3
20260505031729 63 255 1.7 4.3 0.00 0.00 0.00 53 984.2
20260505031231 63 185 1.7 4.3 0.00 0.00 0.00 53 984.2
20260505030730 63 202 1.7 4.3 0.00 0.00 0.00 52 984.3
20260505030230 63 259 1.7 4.3 0.00 0.00 0.00 52 984.3
20260505025730 63 203 2.6 6.1 0.00 0.00 0.00 52 984.3
20260505025230 63 184 1.7 6.1 0.00 0.00 0.00 52 984.3
20260505025013 63 158 1.7 5.2 0.00 0.00 0.00 53 984.4
20260505024520 63 251 1.7 5.2 0.00 0.00 0.00 52 984.4
20260505023729 63 212 1.7 4.3 0.00 0.00 0.00 52 984.4
20260505023516 63 286 1.7 4.3 0.00 0.00 0.00 52 984.4
20260505022729 63 217 1.7 5.2 0.00 0.00 0.00 52 984.4
20260505022230 62 0 1.7 5.2 0.00 0.00 0.00 52 984.3
20260505021731 62 320 1.7 5.2 0.00 0.00 0.00 52 984.5
20260505021230 62 181 0.9 4.3 0.00 0.00 0.00 53 984.6
20260505020731 62 306 0.9 3.5 0.00 0.00 0.00 54 984.7
20260505020231 61 220 0.9 5.2 0.00 0.00 0.00 55 984.7
20260505020013 62 250 0.9 5.2 0.00 0.00 0.00 54 984.8
20260505015232 62 0 0.9 3.5 0.00 0.00 0.00 54 984.7
20260505015017 62 107 0.9 2.6 0.00 0.00 0.00 52 984.7
20260505014230 63 4 0.9 3.5 0.00 0.00 0.00 52 984.7
20260505013731 63 209 1.7 3.5 0.00 0.00 0.00 50 984.7
20260505013232 64 20 0.9 2.6 0.00 0.00 0.00 50 984.6
20260505012731 64 48 1.7 4.3 0.00 0.00 0.00 49 984.4
20260505012232 64 148 1.7 4.3 0.00 0.00 0.00 48 984.4
20260505011732 64 148 1.7 4.3 0.00 0.00 0.00 49 984.3
20260505011230 64 139 1.7 4.3 0.00 0.00 0.00 47 984.3
20260505010731 64 306 1.7 4.3 0.00 0.00 0.00 47 984.2
20260505010519 64 215 1.7 5.2 0.00 0.00 0.00 47 984.2
20260505010056 65 159 1.7 6.1 0.00 0.00 0.00 46 984.1
20260505005754 64 278 1.7 6.1 0.00 0.00 0.00 46 984.2
20260505004728 64 210 1.7 6.1 0.00 0.00 0.00 47 984.1
20260505004227 65 147 0.9 3.5 0.00 0.00 0.00 46 984.1
20260505003724 65 205 1.7 4.3 0.00 0.00 0.00 46 984.1
20260505003224 65 214 1.7 4.3 0.00 0.00 0.00 46 984.0
20260505002723 65 160 1.7 5.2 0.00 0.00 0.00 45 984.0
20260505002224 65 310 1.7 5.2 0.00 0.00 0.00 45 983.9
20260505001724 65 208 2.6 5.2 0.00 0.00 0.00 45 983.9
20260505001224 66 226 2.6 6.1 0.00 0.00 0.00 45 983.9
20260505000724 66 267 2.6 6.1 0.00 0.00 0.00 45 983.9
20260505000226 66 190 1.7 5.2 0.00 0.00 0.00 45 983.9
20260504235725 66 0 1.7 5.2 0.00 0.00 0.00 45 983.9
20260504235222 66 200 2.6 5.2 0.00 0.00 0.00 44 983.8
20260504234722 66 162 2.6 6.1 0.00 0.00 0.00 44 983.8
20260504234511 66 134 2.6 6.1 0.00 0.00 0.00 44 983.8
20260504234010 67 193 1.7 6.1 0.00 0.00 0.00 44 983.7
20260504233221 67 280 2.6 9.6 0.00 0.00 0.00 44 983.7
20260504233010 67 218 3.5 9.6 0.00 0.00 0.00 44 983.6
20260504232222 67 180 3.5 9.6 0.00 0.00 0.00 44 983.7
20260504231722 67 222 3.5 9.6 0.00 0.00 0.00 43 983.7
20260504231223 67 164 3.5 8.7 0.00 0.00 0.00 43 983.7
20260504231012 68 188 3.5 11.3 0.00 0.00 0.00 44 983.7
20260504230222 68 318 3.5 11.3 0.00 0.06 0.00 42 983.7
20260504225719 68 222 3.5 11.3 0.00 0.06 0.00 42 983.7
20260504225219 68 263 3.5 11.3 0.00 0.06 0.00 42 983.7
20260504224720 68 183 3.5 11.3 0.00 0.06 0.00 42 983.6
20260504224220 68 197 3.5 7.8 0.00 0.06 0.00 43 983.7
20260504223719 69 182 4.3 7.8 0.00 0.06 0.00 40 983.7
20260504223220 69 307 4.3 12.2 0.00 0.06 0.00 40 983.7
20260504223009 69 289 4.3 12.2 0.00 0.06 0.00 42 983.7
20260504222219 69 159 4.3 10.4 0.00 0.06 0.00 41 983.6
20260504221720 69 220 4.3 10.4 0.00 0.06 0.00 41 983.7
20260504221220 69 149 4.3 10.4 0.00 0.06 0.00 40 983.8
20260504220720 69 202 4.3 10.4 0.00 0.07 0.00 39 983.8
20260504220220 69 173 3.5 10.4 0.00 0.07 0.00 41 983.8
20260504220009 69 294 4.3 10.4 0.00 0.07 0.00 39 983.8
20260504215218 70 208 3.5 7.8 0.00 0.07 0.00 39 983.9
20260504215007 69 241 4.3 13.0 0.00 0.07 0.00 39 983.8
20260504214217 69 220 5.2 13.0 0.00 0.07 0.00 41 983.8
20260504214007 70 175 3.5 7.8 0.00 0.07 0.00 39 983.8
20260504213218 70 201 3.5 7.8 0.00 0.07 0.00 41 983.8
20260504212719 69 230 3.5 7.8 0.00 0.07 0.00 41 983.8
20260504212218 69 200 3.5 7.8 0.00 0.07 0.00 40 983.8
20260504211718 69 260 3.5 9.6 0.00 0.07 0.00 40 983.8
20260504211218 69 169 3.5 9.6 0.00 0.07 0.00 41 983.9
20260504210719 70 182 3.5 9.6 0.00 0.07 0.00 42 983.8
20260504210216 69 226 3.5 9.6 0.00 0.07 0.00 43 983.8
20260504205712 70 176 3.5 7.8 0.00 0.07 0.00 40 983.8
20260504205213 69 229 3.5 7.8 0.00 0.07 0.00 40 983.8
20260504204712 70 213 3.5 8.7 0.00 0.07 0.00 39 983.8
20260504204212 70 252 4.3 8.7 0.00 0.07 0.00 41 983.8
20260504203713 70 292 2.6 6.1 0.00 0.07 0.00 38 983.8
20260504203213 70 194 2.6 7.0 0.00 0.07 0.00 40 983.9
20260504202713 70 231 3.5 7.8 0.00 0.07 0.00 40 983.9
20260504202213 69 265 3.5 7.8 0.00 0.07 0.00 40 984.0
20260504201713 69 184 4.3 12.2 0.00 0.07 0.00 43 984.0
20260504201213 69 227 5.2 12.2 0.00 0.07 0.00 42 984.1
20260504201007 69 309 3.5 10.4 0.00 0.07 0.00 42 984.1
20260504200211 70 146 3.5 10.4 0.00 0.07 0.00 39 984.2
20260504195707 70 58 3.5 10.4 0.00 0.07 0.00 38 984.3
20260504195207 70 217 3.5 7.8 0.00 0.07 0.00 41 984.3
20260504194957 70 161 3.5 9.6 0.00 0.07 0.00 42 984.3
20260504194208 70 182 4.3 9.6 0.00 0.07 0.00 42 984.4
20260504193958 70 299 4.3 9.6 0.00 0.07 0.00 39 984.3
20260504193208 70 175 3.5 7.8 0.00 0.07 0.00 38 984.5
20260504192711 70 199 2.6 7.0 0.00 0.07 0.00 40 984.6
20260504192209 70 10 3.5 12.2 0.00 0.07 0.00 40 984.6
20260504191708 69 228 4.3 12.2 0.00 0.07 0.00 40 984.7
20260504191211 69 216 4.3 10.4 0.00 0.07 0.00 40 984.7
20260504190954 69 114 4.3 10.4 0.00 0.07 0.00 39 984.8
20260504190205 70 205 3.5 9.6 0.00 0.07 0.00 37 984.8
20260504185705 69 197 3.5 11.3 0.00 0.07 0.00 41 984.9
20260504185204 69 197 3.5 11.3 0.00 0.07 0.00 39 984.9
20260504184703 69 207 4.3 9.6 0.00 0.07 0.00 41 985.0
20260504184204 68 165 4.3 9.6 0.00 0.07 0.00 44 985.1
20260504183704 68 200 4.3 9.6 0.00 0.07 0.00 41 985.1
20260504183203 68 292 3.5 7.8 0.00 0.07 0.00 40 985.0
20260504182701 68 205 3.5 9.6 0.00 0.07 0.00 40 985.2
20260504182201 68 210 3.5 9.6 0.00 0.07 0.00 42 985.4
20260504181701 68 215 3.5 9.6 0.00 0.07 0.00 39 985.4
20260504181200 68 179 3.5 9.6 0.00 0.07 0.00 40 985.5
20260504180700 68 300 4.3 8.7 0.00 0.07 0.00 40 985.5
20260504180200 68 260 4.3 8.7 0.00 0.07 0.00 44 985.7
20260504175701 68 160 3.5 8.7 0.00 0.07 0.00 42 985.6
20260504175201 67 293 3.5 9.6 0.00 0.07 0.00 42 985.8
20260504174701 67 340 3.5 9.6 0.00 0.07 0.00 40 985.8
20260504174201 68 252 3.5 9.6 0.00 0.07 0.00 43 985.9
20260504173701 68 274 3.5 7.8 0.00 0.07 0.00 40 985.9
20260504173202 67 221 3.5 7.0 0.00 0.07 0.00 42 986.0
20260504172701 67 337 3.5 9.6 0.00 0.07 0.00 42 986.1
20260504172201 66 285 4.3 9.6 0.00 0.07 0.00 43 986.1
20260504171701 66 239 3.5 7.8 0.00 0.07 0.00 41 986.2
20260504171202 67 193 3.5 8.7 0.00 0.07 0.00 40 986.2
20260504170701 66 288 3.5 8.7 0.00 0.07 0.00 43 986.4
20260504170202 67 312 3.5 8.7 0.00 0.07 0.00 42 986.5
20260504160202 64 204 3.5 9.6 0.00 0.07 0.00 44 987.0